BSB police log ending July 24, 2013

Print
"07/23/2013","00:14","213CR0017048","SUSPICIOUS ACTIVITY","SUSPICIOUS ACTIVITY","1000 GRIZZLY TRAIL TOWN PUMP","",""
"07/23/2013","00:16","213CR0017049","T/S","T/S","BUFFALO AND MAIN","",""
"07/23/2013","00:53","213CR0017050","PROWLER","PROWLER","818 PLACER ST","",""
"07/23/2013","02:19","213CR0017051","SUSPICIOUS ACTIVITY","SUSPICIOUS ACTIVITY","COBBAN ST AND GAYLORD ST","",""
"07/23/2013","02:58","213CR0017052","FIRE - OTHER","FIRE - OTHER","4821 HUTCH LN","",""
"07/23/2013","05:01","213CR0017053","BURGLARY","BURGLARY","323 ROOSEVELT DR","",""
"07/23/2013","06:51","213CR0017054","FOUND PROPERTY","FOUND PROPERTY","************","",""
"07/23/2013","07:11","213CR0017055","DISTURBANCE","DISTURBANCE","2001 S GAYLORD ST","",""
"07/23/2013","07:13","213CR0017056","LED BUSINESS","LED BUSINESS","BOARDMAN AND EMPIRE","",""
"07/23/2013","07:53","213CR0017057","ABANDONED VEHICLE (MHP)","ABANDONED VEHICLE (MHP)","I90 MM 233 E BND","",""
"07/23/2013","08:00","213CR0017058","T/S","T/S","HARRISON AND ARGYLE","",""
"07/23/2013","08:33","213CR0017059","T/S","T/S","1000 BLK GEORGE ST","",""
"07/23/2013","08:46","213CR0017060","T/S","T/S","MONTANA AND ROWE RD","",""
"07/23/2013","08:52","213CR0017061","T/S","T/S","MONTANA AND HOLLAND","",""
"07/23/2013","08:55","213CR0017062","STOLEN VEHICLE","STOLEN VEHICLE","322 W GOLD","",""
"07/23/2013","09:00","213CR0017063","TRAFFIC HAZARD","TRAFFIC HAZARD","CONTINENTAL AND HOLIDAY","",""
"07/23/2013","09:02","213CR0017064","T/S","T/S","MONTANA AND HOLLAND","",""
"07/23/2013","09:39","213CR0017065","ALL OTHER","TAMPERING WITH WITNESSES","225 N ALASKA ST","",""
"07/23/2013","09:41","213CR0017066","ANIMAL COMPLAINT","ANIMAL COMPLAINT","FAIRMONT RD","",""
"07/23/2013","10:04","213CR0017067","ANIMAL COMPLAINT","ANIMAL COMPLAINT","1017 W PARK","",""
"07/23/2013","10:05","213CR0017068","HARASSMENT","HARASSMENT","409 SILVER BOW HOMES","",""
"07/23/2013","10:23","213CR0017069","T/S","T/S","HARRISON AVE AND AIRPORT RD","",""
"07/23/2013","10:37","213CR0017070","T/S","T/S","FOUR MILE RD AND HARRISON AVE","",""
"07/23/2013","10:41","213CR0017071","ACCIDENT","ACCIDENT","310 W FRONT","",""
"07/23/2013","10:57","213CR0017072","INFORMATION ONLY","INFORMATION ONLY","74445 HWY 43","",""
"07/23/2013","11:03","213CR0017073","THEFT","THEFT","700 EVANS AVE","",""
"07/23/2013","11:10","213CR0017074","T/S","T/S","GRAND AND CAROLINA","",""
"07/23/2013","11:31","213CR0017075","BURGLARY","BURGLARY, NON-RESIDENCE","131 W BROADWAY","",""
"07/23/2013","11:47","213CR0017076","T/S","T/S","500 BLK S WASHINGTON","",""
"07/23/2013","11:54","213CR0017077","HARASSMENT","HARASSMENT","2611 SILVER BOW BLVD","",""
"07/23/2013","12:26","213CR0017078","THEFT","THEFT","","",""
"07/23/2013","12:39","213CR0017079","SEXUAL ASSAULT","SEXUAL ASSAULT","************","",""
"07/23/2013","13:11","213CR0017081","MEDICAL - EMERGENCY","MEDICAL - EMERGENCY","1431 1/2 SAMPSON","",""
"07/23/2013","13:45","213CR0017082","PARKING COMPLAINT","PARKING COMPLAINT","700 BLK NEVADA ST","",""
"07/23/2013","13:48","213CR0017083","ASSIST OTHER AGENCY","ASSIST OTHER AGENCY","1031 ANTIMONY","",""
"07/23/2013","14:14","213CR0017084","FRAUD","FRAUD","8 W PARK #301","",""
"07/23/2013","14:38","213CR0017085","CITIZEN AID","CITIZEN AID","531 S MONTANA","",""
"07/23/2013","14:45","213CR0017086","THEFT","BURGLARY, NON-RESIDENCE","401 S WYOMING ST","",""
"07/23/2013","15:15","213CR0017087","ASSAULT","PFMA - MINOR INJ/PHYSICAL CONT","1711 SILVER BOW HOMES","ARREST(s) MADE",""
"07/23/2013","15:28","213CR0017088","THEFT","THEFT FROM MOTOR VEHICLE","1809 THOMAS AVE","",""
"07/23/2013","15:41","213CR0017089","JUVENILE RUNAWAY","JUVENILE RUNAWAY","************","",""
"07/23/2013","15:51","213CR0017090","SEXUAL ASSAULT","SEXUAL ASSAULT","************","",""
"07/23/2013","15:59","213CR0017091","ATL","ATL","I90 W MM246","",""
"07/23/2013","16:26","213CR0017092","INFORMATION ONLY","INFORMATION ONLY","","",""
"07/23/2013","16:27","213CR0017093","UNKNOWN PROBLEM","UNKNOWN PROBLEM","25 E GRANITE ST","",""
"07/23/2013","16:49","213CR0017094","T/S","T/S @ I15 MM122 S BND","I15 MM122 S BND","",""
"07/23/2013","16:50","213CR0017095","ABANDONED VEHICLE","ABANDONED VEHICLE","2108 LOCUST ST","",""
"07/23/2013","17:09","213CR0017096","T/S","T/S","FARRAGUT AVE // AMHERST AVE","",""
"07/23/2013","17:22","213CR0017097","T/S","DRIVING W/OUT VALID D/L","1100 BLK MARLAYND","",""
"07/23/2013","17:42","213CR0017098","ABANDONED VEHICLE","ABANDONED VEHICLE","1845 ELM ST","",""
"07/23/2013","17:56","213CR0017099","RESTRAINING ORDER VIOLATION","RESTRAINING ORDER VIOLATION","************","",""
"07/23/2013","18:43","213CR0017100","ALL OTHER","ALL OTHER","2055 HARRISON AVE","",""
"07/23/2013","18:47","213CR0017101","CITIZEN AID","CITIZEN AID","1900 C ST","",""
"07/23/2013","19:31","213CR0017102","ALL OTHER","ALL OTHER","119042 SILVER BOW BLVD","",""
"07/23/2013","19:34","213CR0017103","MEDICAL - EMERGENCY","MEDICAL - EMERGENCY","107 MOUNTAIN VIEW","",""
"07/23/2013","19:39","213CR0017104","MISSING PERSON","MISSING PERSON","************","",""
"07/23/2013","19:41","213CR0017105","ALARM - BURGLARY","ALARM - BURGLARY","************","",""
"07/23/2013","19:55","213CR0017106","JUVENILE MISC","JUVENILE MISC","************","",""
"07/23/2013","20:05","213CR0017107","FIRE - OTHER","FIRE - OTHER","105 S PARKMONT","",""
"07/23/2013","20:31","213CR0017108","SUSPICIOUS ACTIVITY","SUSPICIOUS ACTIVITY","FATHER SHEEHAN PARK","",""
"07/23/2013","20:34","213CR0017109","CITIZEN AID","CITIZEN AID","8 W PARK ST #309","",""
"07/23/2013","20:42","213CR0017110","DISTURBANCE-NOISE","DISTURBANCE-NOISE","2943 HANSON RD","",""
"07/23/2013","20:48","213CR0017111","HARASSMENT","HARASSMENT","3016 DIXON ST","",""
"07/23/2013","20:52","213CR0017112","SUICIDE ATTEMPT/THREAT","SUICIDE ATTEMPT/THREAT","************","",""
"07/23/2013","20:58","213CR0017113","DOMESTIC ABUSE","DOMESTIC ABUSE","************","",""
"07/23/2013","21:08","213CR0017114","ATL","ATL","1900 BLK DEWEY BLVD","",""
"07/23/2013","21:12","213CR0017115","JUVENILE MISC","JUVENILE MISC","************","",""
"07/23/2013","21:12","213CR0017116","JUVENILE MISC","JUVENILE MISC","************","",""
"07/23/2013","21:29","213CR0017117","ASSIST OTHER AGENCY","ASSIST OTHER AGENCY","1500 FAIRMONT RD","",""
"07/23/2013","22:03","213CR0017118","MEDICAL - EMERGENCY","MEDICAL - EMERGENCY","400 W GRANITE","",""
"07/23/2013","22:20","213CR0017119","SUSPICIOUS ACTIVITY","SUSPICIOUS ACTIVITY","729 W GRANITE","",""
"07/23/2013","22:38","213CR0017120","SUSPICIOUS ACTIVITY","SUSPICIOUS ACTIVITY","900 BLK E FRONT N ALLEY","",""
"07/23/2013","23:06","213CR0017121","DISTURBANCE","DISTURBANCE","1720 WILSON","",""
"07/23/2013","23:20","213CR0017122","DISTURBANCE","DISTURBANCE","2400 BLK HARRISON AVE","",""
"07/23/2013","23:25","213CR0017123","SUSPICIOUS ACTIVITY","SUSPICIOUS ACTIVITY","600 BLK SAMPSON","",""
"07/23/2013","23:26","213CR0017124","THEFT","THEFT","1601 S WARREN","",""
"07/23/2013","23:29","213CR0017125","JUVENILE MISC","JUVENILE MISC","************","",""
"07/23/2013","23:40","213CR0017126","WELFARE CHECK","WELFARE CHECK","1126 IOWA","",""
"07/23/2013","23:43","213CR0017127","SUSPICIOUS ACTIVITY","SUSPICIOUS ACTIVITY","800 BLK N MAIN ST","",""
"07/24/2013","01:25","213CR0017128","DISTURBANCE","DISTURBANCE","400 S CLARK/ST JAMES ER","",""
"07/24/2013","01:32","213CR0017129","PARKING COMPLAINT","PARKING COMPLAINT","1370 HARRISON/TOWN PUMP","",""
"07/24/2013","01:35","213CR0017130","THEFT","BURGLARY, RESIDENCE","2719 GRAND AVE","",""
"07/24/2013","03:04","213CR0017131","DISTURBANCE","DISTURBANCE","200 BLK S JACKSON","",""
"07/24/2013","04:13","213CR0017132","DISTURBANCE","DISTURBANCE","10 BLK N MAIN","",""
"07/24/2013","04:23","213CR0017133","MEDICAL - EMERGENCY","MEDICAL - EMERGENCY","2900 HARRISON BUTTE PLAZA INN","",""
"07/24/2013","07:01","213CR0017135","DISTURBANCE","DISTURBANCE","300 BLK GRANITE MOUNTAIN RD","",""
"07/24/2013","07:29","213CR0017136","CITIZEN AID","CITIZEN AID","EXCELSIOR AVE AND IRON ST","",""
"07/24/2013","07:41","213CR0017137","T/S","T/S @ IRON ST AND WASHINGTON ST","IRON ST AND WASHINGTON ST","",""
"07/24/2013","07:56","213CR0017140","T/S","T/S @ SILVER AND DAKOTA","SILVER AND DAKOTA","",""